Regional Weather Roundup
Issued by NWS

Home | Current Version | Previous Version | Graphics & Text | Print | Product List | Glossary On
Versions: 1 2 3 4 5 6 7 8 9 10 11 12 13 14 15 16 17 18 19 20 21 22 23 24 25 26 27 28 29 30 31 32 33 34 35 36 37 38 39 40 41 42 43 44 45 46 47 48 49 50
000
ASUS43 KLOT 291908
RWRIL

ILLINOIS REGIONAL WEATHER ROUNDUP
NATIONAL WEATHER SERVICE CHICAGO/ROMEOVILLE IL
200 PM CDT MON JUN 29 2015

NOTE: "FAIR" INDICATES FEW OR NO CLOUDS BELOW 12,000 FEET WITH NO
SIGNIFICANT WEATHER AND/OR OBSTRUCTIONS TO VISIBILITY.

* THESE STATIONS ARE NOT UNDER NWS QUALITY CONTROL. THEY ALSO MAY NOT
  REPORT WEATHER SUCH AS PRECIPITATION OR FOG.

ILZ001-002-007-009-015-016-024-292000-
NORTHWEST ILLINOIS

CITY           SKY/WX    TMP DP  RH WIND       PRES   REMARKS
MOLINE         MOSUNNY   76  64  66 W8        29.84F
STERLING*      MOSUNNY   77  66  69 W13       29.82F
SAVANNA*       MOSUNNY   78  60  54 NW8       29.82F
$$

ILZ003-004-008-010-011-017-018-292000-
NORTH CENTRAL ILLINOIS

CITY           SKY/WX    TMP DP  RH WIND       PRES   REMARKS
ROCKFORD       PTSUNNY   76  60  57 VRB3      29.82S
FREEPORT*      CLOUDY    77  64  63 W10       29.83S
ROCHELLE*      HVY RAIN  73  64  75 CALM      29.82S
DE KALB*       CLOUDY    69  63  80 N10       29.82S
PERU*          PTSUNNY   76  61  58 W7        29.82F
$$

ILZ005-006-012>014-019>023-292000-
NORTHEAST ILLINOIS

CITY           SKY/WX    TMP DP  RH WIND       PRES   REMARKS
CHICAGO-OHARE  PTSUNNY   75  62  64 E9        29.80S
CHICAGO-MIDWAY PTSUNNY   73  64  73 VRB6      29.80F
AURORA         LGT RAIN  73  65  75 SE5       29.81S
LANSING*       LGT RAIN  67  64  89 NE8       29.82R
JOLIET*        CLOUDY    74  68  80 NE3       29.81S
WAUKEGAN       MOSUNNY   69  63  81 E8        29.81F
DUPAGE AIRPORT CLOUDY    73  61  65 CALM      29.80F
KANKAKEE*      CLOUDY    74  65  74 SE6       29.81F
WHEELING       PTSUNNY   73  60  63 NE10      29.81F
MORRIS*        PTSUNNY   76  65  69 N3        29.79S
ROMEOVILLE*    LGT RAIN  68  65  90 E6        29.81S
NORTHERLY ISL    N/A     67  63  87 E7          N/A
$$

LMZ740>746-292000-
SOUTHERN LAKE MICHIGAN

STATION/POSITION SKY/WX   TEMP    WIND        PRES    VSBY  WAVE
                          AIR SEA DIR/SP/G                  HT/PER
                          (F)     (DEG/KT/KT) (MB)    (MI)  (FT/S)
HARRISON CRIB              63      90/  7/  9   N/A
BURNHAM HARBOR             67     100/  6/  7   N/A
CALUMET HARBOR             65      50/  6/  7   N/A
BURNS HARBOR               67     120/  6/ 10 1010.5S
MICHIGAN CITY              67     120/  4/  5   N/A
MICHIGAN CITY 6N           69 66     CALM       N/A           0
ST. JOSEPH                 65 63                N/A           0
$$

ILZ025>027-034>036-040-047-049-050-058-095>099-292000-
WEST-CENTRAL ILLINOIS

CITY           SKY/WX    TMP DP  RH WIND       PRES   REMARKS
QUINCY         MOSUNNY   79  66  64 NW5       29.88S HX  81
GALESBURG*     PTSUNNY   76  65  69 W6        29.86F
MACOMB*        PTSUNNY   74  65  72 W5        29.89S
JACKSONVILLE*  CLOUDY    78  66  67 NW7       29.88R
PITTSFIELD*    PTSUNNY   79  66  64 W8        29.89S HX  81
$$

ILZ028>032-037-038-041>044-048-051>054-059>061-292000-
CENTRAL ILLINOIS

CITY           SKY/WX    TMP DP  RH WIND       PRES   REMARKS
PONTIAC        CLOUDY    76  67  75 NW6       29.82F
BLOOMINGTON    PTSUNNY   78  64  61 NW15      29.85S HX  80
DECATUR        PTSUNNY   78  64  61 W12       29.84S HX  80
PEORIA         PTSUNNY   78  63  59 NW7       29.85S HX  80
LACON*         MOSUNNY   76  63  64 NW9       29.82F
LINCOLN*       PTSUNNY   78  64  61 NW7       29.85S HX  80
SPRINGFIELD    MOSUNNY   79  66  64 NW10      29.86S HX  81
TAYLORVILLE    MOSUNNY   75  64  69 NW9       29.85S
$$

ILZ033-039-045-046-055>057-062-063-292000-
EAST-CENTRAL ILLINOIS

CITY           SKY/WX    TMP DP  RH WIND       PRES   REMARKS
CHAMPAIGN      MOSUNNY   77  66  68 NW9       29.82S
DANVILLE*      LGT RAIN  71  66  84 CALM      29.80S
RANTOUL*       PTSUNNY   78  67  68 NW6       29.82S HX  80
MATTOON        PTSUNNY   76  65  68 NW12      29.83R
PARIS*         CLOUDY    77  68  73 NW8       29.82S
$$

ILZ079-100>102-292000-
SOUTHWEST ILLINOIS

CITY           SKY/WX    TMP DP  RH WIND       PRES   REMARKS
ALTON          PTSUNNY   77  70  78 NW12      29.88S
BELLEVILLE     MOSUNNY   80  68  68 VRB5      29.86F HX  82
CAHOKIA*       MOSUNNY   82  65  56 NW10G18   29.87S HX  84
SPARTA*        MOSUNNY   81  66  59 NW7       29.88F HX  83
$$

ILZ064>066-069>071-074>076-080>082-084>086-088>090-092>094-292000-
SOUTH-CENTRAL ILLINOIS

CITY           SKY/WX    TMP DP  RH WIND       PRES   REMARKS
CARBONDALE     MOSUNNY   83  65  54 NW9       29.86S HX  85
CAIRO*         SUNNY     85  68  56 SW3       29.85S HX  88
EFFINGHAM*     MOSUNNY   77  60  56 W9        29.87S
MARION         MOSUNNY   82  68  61 W9        29.87S HX  85
MT. VERNON     MOSUNNY   79  64  61 N3        29.87S HX  81
CENTRALIA*     MOSUNNY   78  64  62 NW10      29.87F
SALEM*         MOSUNNY   79  64  59 W9        29.87S HX  80
METROPOLIS*    SUNNY     86  69  56 W9        29.86S HX  90
$$

ILZ067-068-072-073-078-083-087-091-292000-
SOUTHEAST ILLINOIS

CITY           SKY/WX    TMP DP  RH WIND       PRES   REMARKS
LAWRENCEVILLE  MOSUNNY   78  65  63 NW14      29.84S HX  80
FLORA*         SUNNY     78  63  61 NW9       29.86S
FAIRFIELD*     MOSUNNY   78  66  67 NW8       29.85S HX  80
HARRISBURG*    SUNNY     82  66  56 NW10      29.86S HX  84
ROBINSON*      CLOUDY    75  66  72 W10       29.84S
CARMI*         MOSUNNY   81  60  48 W16       29.85R HX  82
$$

ABBREVIATIONS USED IN REMARKS
   TC - TEMPERATURE IN CELSIUS
  WCI - WIND CHILL INDEX
   HX - HEAT INDEX
  VSB - VISIBILITY
$$



USA.gov is the U.S. government's official web portal to all federal, state and local government web resources and services.